Location: Newark
(21.1200°N, 73.4000°E)
Time: 11:40:31
(UTC+00:00)

Vanguard 2 Rocket - Pass Details

Date: 26 January 2020
Orbit: 554 x 3327 km, 32.9° (Epoch: 19 February)

Event Time Altitude Azimuth Distance (km) Brightness Sun altitude
Exits shadow 00:17:20 25° 344° (NNW) 1,357 7.5 -20.5°
Maximum altitude 00:17:51 25° 355° (N) 1,370 7.6 -20.4°
Drops below altitude 10° 00:22:28 10° 50° (NE) 2,552 9.7 -19.3°
Sets 00:26:10 0° 63° (ENE) 3,912 10.9 -18.5°
